Weather History for Smyrna, TN

Change the Weather History Date:

Sunday, February 3, 2013

  Actual Average Record
Temperature  
Mean Temperature 38 °F -  
Max Temperature 48 °F 46 °F 64 °F (2012)
Min Temperature 27 °F 32 °F 15 °F (2007)
Degree Days  
Heating Degree Days 27    
Moisture  
Dew Point 30 °F    
Average Humidity 76    
Maximum Humidity 96    
Minimum Humidity 46    
Precipitation  
Precipitation 0.01 in - - ()
Sea Level Pressure  
Sea Level Pressure 30.15 in    
Wind  
Wind Speed 5 mph (NNW)    
Max Wind Speed 18 mph    
Max Gust Speed 29 mph    
Visibility 10 miles    
Events Rain    
Averages and records for this station are not official NWS values.
T = Trace of Precipitation, MM = Missing Value Source: NWS Daily Summary

Daily Weather History Graph

Daily Weather History Graph

Search for Another Location

Airport:

Trip Planner

Search our weather history database for the weather conditions in past years. The results will help you decide how hot, cold, wet, or windy it might be!

Date:

Astronomy

Feb. 03, 2013 Rise Set
Actual Time 6:44 AM CST 5:15 PM CST
Civil Twilight 6:18 AM CST 5:42 PM CST
Nautical Twilight 5:47 AM CST 6:12 PM CST
Astronomical Twilight 5:17 AM CST 6:42 PM CST
Moon 12:11 AM CST (2/3) 10:53 AM CST (2/3)
Length of Visible Light 11h 24m
Length of Day
10h 30m
Waning Gibbous, 48% of the Moon is Illuminated
Feb 3
Waning Gibbous
Feb 10
New
Feb 17
First Quarter
Feb 25
Full
Mar 4
Last Quarter

Hourly Weather History & Observations

Time (CST) Temp. Windchill Dew Point Humidity Pressure Visibility Wind Dir Wind Speed Gust Speed Precip Events Conditions
12:56 AM 32.0 °F - 29.1 °F 89% 30.17 in 10.0 mi Calm Calm - N/A   Mostly Cloudy
2:56 AM 34.0 °F - 30.0 °F 85% 30.13 in 10.0 mi Calm Calm - N/A   Overcast
3:56 AM 34.0 °F - 30.0 °F 85% 30.10 in 10.0 mi Calm Calm - 0.00 in   Mostly Cloudy
4:20 AM 33.8 °F - 30.2 °F 87% 30.07 in 6.0 mi Calm Calm - 0.01 in Rain Light Rain
4:32 AM 33.8 °F - 32.0 °F 93% 30.06 in 10.0 mi Calm Calm - 0.01 in Rain Light Rain
4:48 AM 33.8 °F - 32.0 °F 93% 30.06 in 10.0 mi Calm Calm - 0.01 in Rain Light Rain
4:56 AM 32.9 °F 27.5 °F 32.0 °F 96% 30.09 in 10.0 mi SSE 5.8 mph - 0.01 in Rain Light Rain
5:56 AM 34.0 °F - 32.0 °F 92% 30.07 in 10.0 mi Calm Calm - 0.00 in   Scattered Clouds
6:56 AM 36.9 °F 29.1 °F 32.0 °F 83% 30.08 in 10.0 mi West 11.5 mph 16.1 mph 0.00 in   Clear
7:56 AM 41.0 °F 33.9 °F 34.0 °F 76% 30.11 in 10.0 mi WNW 12.7 mph - N/A   Clear
8:56 AM 43.0 °F 35.7 °F 34.0 °F 71% 30.12 in 10.0 mi WNW 15.0 mph - N/A   Clear
9:56 AM 45.9 °F 39.4 °F 32.9 °F 61% 30.12 in 10.0 mi NW 15.0 mph - N/A   Clear
10:56 AM 46.9 °F - 31.1 °F 54% 30.14 in 10.0 mi NNW 18.4 mph - N/A   Mostly Cloudy
11:56 AM 48.9 °F - 31.1 °F 50% 30.14 in 10.0 mi North 18.4 mph 28.8 mph N/A   Mostly Cloudy
12:56 PM 48.9 °F - 29.1 °F 46% 30.14 in 10.0 mi NNW 13.8 mph 23.0 mph N/A   Mostly Cloudy
1:56 PM 45.9 °F 38.5 °F 30.0 °F 54% 30.16 in 10.0 mi North 18.4 mph 23.0 mph N/A   Mostly Cloudy
2:56 PM 45.0 °F 39.3 °F 30.0 °F 56% 30.17 in 10.0 mi North 11.5 mph - N/A   Clear
3:56 PM 43.0 °F 36.4 °F 29.1 °F 58% 30.19 in 10.0 mi North 12.7 mph - N/A   Partly Cloudy
4:56 PM 41.0 °F 35.2 °F 29.1 °F 63% 30.20 in 10.0 mi North 9.2 mph - N/A   Clear
5:56 PM 37.9 °F - 28.0 °F 68% 30.21 in 10.0 mi Calm Calm - N/A   Clear
6:56 PM 34.0 °F - 27.1 °F 76% 30.22 in 10.0 mi Calm Calm - N/A   Clear
7:56 PM 30.0 °F - 26.1 °F 85% 30.22 in 10.0 mi Calm Calm - N/A   Clear
8:56 PM 29.1 °F - 26.1 °F 88% 30.24 in 10.0 mi Calm Calm - N/A   Clear
9:56 PM 32.0 °F 25.6 °F 26.1 °F 79% 30.24 in 10.0 mi NE 6.9 mph - N/A   Clear
10:56 PM 28.0 °F - 25.2 °F 89% 30.23 in 10.0 mi Calm Calm - N/A   Clear
11:56 PM 27.1 °F - 24.1 °F 88% 30.21 in 10.0 mi Calm Calm - N/A   Clear